Regional Weather Roundup
Issued by NWS Charleston, SC

Current Version | Previous Version | Text Only | Print | Product List | Glossary On
Versions: 1 2 3 4 5 6 7 8 9 10 11 12 13 14 15 16 17 18 19 20 21 22 23 24 25 26 27 28 29 30 31 32 33 34 35 36 37 38 39 40 41 42 43 44 45 46 47 48 49 50
000 ASUS42 KCHS 281410 RWRCHS REGIONAL WEATHER ROUNDUP NATIONAL WEATHER SERVICE CHARLESTON SC 1000 AM EDT MON JUL 28 2014 NOTE: "FAIR" INDICATES FEW OR NO CLOUDS BELOW 12,000 FEET WITH NO SIGNIFICANT WEATHER AND/OR OBSTRUCTIONS TO VISIBILITY. NOT ALL STATIONS ARE QUALITY CONTROLLED BY THE NATIONAL WEATHER SERVICE. USE DATA WITH CAUTION...ESPECIALLY DEWPOINT OBSERVATIONS. SCZ027-030-031-034>040-042>050-281500- ...SOUTH CAROLINA... CITY SKY/WX TMP DP RH WIND PRES REMARKS N CHARLESTON PTSUNNY 87 75 67 SW7 29.88S HX 96 WATERFRONT PRK N/A 88 N/A N/A SW10G16 N/A FORT JOHNSON NOT AVBL MOUNT PLEASANT FAIR 88 77 70 SW9G18 29.87F HAZE HX 100 JOHNS ISLAND MOSUNNY 88 73 62 W9 29.88F HX 96 PINOPOLIS N/A 84 75 74 SW9 29.80R HX 92 MONCKS CORNER N/A 86 79 79 SW8 29.87S HX 99 SUMMERVILLE FAIR 86 77 74 SW7 29.88F HX 97 BEAUFORT MCAS PTSUNNY 87 76 69 W14 29.90S HX 97 BEAUFORT ARPT FAIR 86 77 74 SW12G17 29.90S HX 97 HILTON HEAD IS MOSUNNY 88 79 74 SW9 29.92S HX 102 GEORGETOWN NOT AVBL WALTERBORO MOSUNNY 86 73 66 W12 29.89S HX 93 ORANGEBURG CLOUDY 84 73 69 W13 29.87R HX 90 BARNWELL FAIR 82 75 78 W7 29.89R AIKEN FAIR 82 77 83 W9G18 29.92S HX 91 MANNING FAIR 84 77 79 SW6 29.86S HX 94 KINGSTREE NOT AVBL COLUMBIA CLOUDY 86 73 65 W8 29.85R HX 93 SUMTER PTSUNNY 83 76 79 W10 29.84R HX 90 FLORENCE PTSUNNY 84 74 71 W10 29.83F HX 91 MYRTLE BEACH SUNNY 82 73 74 W8 29.85R N MYRTLE BEACH PTSUNNY 83 74 74 W8G17 29.84R $$ GAZ063-065-086>088-099>101-113>116-118-119-134-136>141-150-281500- ...GEORGIA... CITY SKY/WX TMP DP RH WIND PRES REMARKS SAVANNAH ARPT PTSUNNY 88 76 67 W12 29.92F HX 99 HUNTER AAF SUNNY 87 78 73 SW10 29.91F HX 99 FORT STEWART SUNNY 87 76 69 SW12 29.93S HX 97 STATESBORO NOT AVBL SYLVANIA PTSUNNY 85 79 82 W7 29.92R HX 97 CLAXTON FAIR 88 79 74 W7 29.93S HX 102 THOMSON CLOUDY 84 80 86 W8 29.95R HX 97 AUGUSTA-BUSH PTSUNNY 85 74 69 W15G21 29.88R HX 92 AUGUSTA-DANIEL PTSUNNY 84 74 71 W9 29.90S HX 91 SWAINSBORO FAIR 88 79 74 W9 29.94S HX 102 VIDALIA N/A 86 77 74 SW9G16 29.95R HX 97 ALMA NOT AVBL WAYCROSS SUNNY 90 80 73 W10 29.98S HX 107 JESUP NOT AVBL BRUNSWICK SUNNY 86 75 70 SW9 29.97S HX 95 SAINT SIMONS SUNNY 85 76 74 SW12 29.96F HX 94 $$ SCZ027-028-034-036>038-045-046-048>050-GAZ119-141-281500- ...LAKE AND SUPPLEMENTAL COASTAL OBSERVATIONS... STATION/POSITION TIME TEMP WIND PRES WAVE SWELL AIR SEA DIR/SP/G HT/PER HT/PER/DIR (UTC) (F) (DEG/KT/KT) (MB) (FT/S) (FT/S/D) UPR LAKE MARION NOT AVBL WINYAH BAY 1300 83 230/ 9 1010.0F LAKE MURRAY 1300 82 270/ 10/ 13 1010.5R ACE BASIN NERRS 1300 83 250/ 3 1013.0S FORT PULASKI 1400 86 230/ 9/ 13 1013.4F SAPELO ISLAND 1300 83 250/ 11 1015.0S $$ ANZ835-935-AMZ111-154-330-350-352-354-374-450-454-472-281500- ...C-MAN AND BUOY OBSERVATIONS... STATION/POSITION TIME TEMP WIND PRES WAVE SWELL AIR SEA DIR/SP/G HT/PER HT/PER/DIR (UTC) (F) (DEG/KT/KT) (MB) (FT/S) (FT/S/D) FOLLY BEACH CMAN 1300 84 240/ 11/ 14 1012.5S BUOY 41004 1400 84 83 240/ 17/ 19 1011.0F 4/ 6 2/10 BUOY 41008 1400 83 84 260/ 16/ 17 1013.7F 3/ 5 2/120/10 5E ST. MARYS GA 1400 84 N/A 2/ 3 FRYING PAN BUOY NOT AVBL BUOY 41025 1400 VRB 17/ 21 1008.4R 6/ 7 2/150/ 8 CAPE LOOKOUT NC 1300 83 230/ 10/ 13 1008.8R BUOY 41002 1256 82 81 240/ 16/ 19 1015.1R 6/ 6 2/160/ 9 BUOY 41010 1400 84 84 270/ 16/ 17 1017.3R 4/ 5 2/140/ 9 BUOY 41012 NOT AVBL ST AUGUSTINE FL 1400 85 260/ 8/ 11 1016.9F CAPERS NEARSHORE 1300 84 260/ 16/ 21 N/A FRIPP NEARSHORE NOT AVBL $$

USA.gov is the U.S. government's official web portal to all federal, state and local government web resources and services.